Regional Weather Roundup
Issued by NWS

Home | Current Version | Previous Version | Graphics & Text | Print | Product List | Glossary On
Versions: 1 2 3 4 5 6 7 8 9 10 11 12 13 14 15 16 17 18 19 20 21 22 23 24 25 26 27 28 29 30 31 32 33 34 35 36 37 38 39 40 41 42 43 44 45 46 47 48 49 50
000
ASUS43 KFSD 230210
RWRSD

WEATHER ROUNDUP FOR SOUTH DAKOTA
NATIONAL WEATHER SERVICE SIOUX FALLS SD
800 PM CST WED FEB 22 2017

NOTE: "FAIR" INDICATES FEW OR NO CLOUDS BELOW 12,000 FEET WITH NO
SIGNIFICANT WEATHER AND/OR OBSTRUCTIONS TO VISIBILITY.


SDZ001>005-009-010-012>017-230300-
NORTHWEST AND NORTH CENTRAL SOUTH DAKOTA

CITY           SKY/WX    TMP DP  RH WIND       PRES   REMARKS
BUFFALO          N/A     32  29  88 NE6       29.86S WCI  26
FAITH            N/A     31  31 100 N10       29.92R WCI  22
MOBRIDGE       CLOUDY    34  28  79 N5        29.92R WCI  30
$$

SDZ012>016-024>037-041>051-057-063-072>074-230300-
SOUTHWEST AND SOUTH CENTRAL SOUTH DAKOTA

CITY           SKY/WX    TMP DP  RH WIND       PRES   REMARKS
RAPID CTY ARPT CLOUDY    35  27  72 N20G29    29.88R WCI  24
PIERRE         CLOUDY    36  31  82 N15       29.88R
CUSTER         CLOUDY    33  23  66 NE7       29.80S WCI  27
ELLSWORTH AFB  CLOUDY    35  28  77 N17       29.88  WCI  24
PHILIP         CLOUDY    37  30  75 N15G23    29.91R
PINE RIDGE     PTCLDY    40  32  73 NE10      29.86R
SPEARFISH      CLOUDY    32  28  86 N7        29.91R WCI  26
WINNER         FAIR      39  33  79 N14       29.87R
$$

SDZ004>011-016>023-039-040-230300-
NORTHEAST SOUTH DAKOTA

CITY           SKY/WX    TMP DP  RH WIND       PRES   REMARKS
ABERDEEN       CLOUDY    32  27  81 N12       29.91R WCI  23
WATERTOWN      CLOUDY    32  29  88 N16       29.84R WCI  21
BROOKINGS      CLOUDY    36  32  85 N15       29.80R
SISSETON         N/A     33  30  88 N23G31    29.86R WCI  21
$$

SDZ017-020-022-023-036>040-048>070-230300-
SOUTHEAST SOUTH DAKOTA

CITY           SKY/WX    TMP DP  RH WIND       PRES   REMARKS
SIOUX FALLS    PTCLDY    41  37  86 N13       29.79R
HURON          CLOUDY    35  31  85 N18G25    29.86R WCI  24
CHAMBERLAIN    PTCLDY    41  38  89 N14       29.85R
MITCHELL       CLOUDY    39  36  89 N20       29.84R
YANKTON        CLEAR     45  37  76 N9        29.80R
$$

ABBREVIATIONS USED IN REMARKS
   TC - TEMPERATURE IN CELSIUS
  WCI - WIND CHILL INDEX
   HX - HEAT INDEX
  VSB - VISIBILITY





USA.gov is the U.S. government's official web portal to all federal, state and local government web resources and services.